Weather in Tereze

Russia / Karachay-Cherkess Republic     43°55′59″N   42°26′33″E
temp.,
°C
wind,
m/s
gust,
m/s
humid.,
%
clouds,
%
prec.,
mm/h
press.,
hPa
HPBL,
m
19 may, wed
wed1900:00+10s22824 0.0 101113
03:00+9sse3265100 0.0 100922
06:00+11nw34721 0.0 100993
09:00+14n22725 0.0 1010371
12:00+15nnw6686100 1.0 1013858
15:00+13wnw258589 1.4 1014683
18:00+14nne34833 0.6 1015308
21:00+10ene239181 0.8 1017107
20 may, thu
thu2000:00+8sse22934 0.0 101715
03:00+7s327599 0.0 101717
06:00+9s22655 0.0 101721
09:00+15ene23515 0.0 1015601
12:00+19e43512 0.0 1014923
15:00+20e55620 0.0 1013913
18:00+17ese57770 0.0 1014419
21:00+12sse32885 0.0 101522
21 may, fri
fri2100:00+13s32485 0.0 101315
03:00+14s22325 0.0 101312
06:00+15s32520 0.0 101217
09:00+23e33490 0.0 1010285
12:00+26e455018 0.0 1009452
15:00+26e335074 0.0 1009520
18:00+22ese34775 0.0 1009106
21:00+18s32710 0.0 101016
22 may, sat
sat2200:00+18ssw434292 0.0 100925
03:00+18ssw43295 0.0 100924
06:00+18s434832 0.0 100824
09:00+27e334287 0.0 1006309
12:00+27nne344797 0.0 1007610
15:00+26nne345490 0.0 10071140
18:00+22nw3476100 0.0 1008322
21:00+17wsw3389100 1.1 100837
23 may, sun
sun2300:00+17w3393100 0.1 100758
03:00+17w3394100 0.4 100761
06:00+17sw238398 0.0 100752
09:00+21nnw217015 0.0 1007526
12:00+23ne33675 0.0 1007944
15:00+24ene676593 0.0 10051386
18:00+20ese3784100 0.8 1007223
21:00+15wsw3486100 4.4 101093